Weather in Inzhavino

Russia / Tambov Oblast     52°19′14″N   42°29′17″E
temp.,
°C
wind,
m/s
gust,
m/s
humid.,
%
clouds,
%
prec.,
mm/h
press.,
hPa
HPBL,
m
27 february, sat
sat2700:00+1w51292100 0.1 1006393
03:000w61393100 0.1 1006369
06:00+1w6139598 0.0 1004585
09:00+1w6139798 0.1 1004686
12:00+1w7139999 0.1 1003689
15:00−1nw8149393 0.5 1004775
18:00−6nnw7118799 0.1 1007749
21:00−8nnw5119191 0.1 1010483
28 february, sun
sun2800:00−10nnw499397 0.0 1012341
03:00−11nw369558 0.0 1013146
06:00−12nw35950 0.0 1014125
09:00−10nw469231 0.0 1015310
12:00−8nw358995 0.0 1015515
15:00−6nw258997 0.1 1015593
18:00−7nnw2296100 0.1 101651
21:00−8n239599 0.2 101875
1 march, mon
mon100:00−11nne339587 0.0 102060
03:00−13nne229549 0.0 102221
06:00−13n22940 0.0 102323
09:00−12n12920 0.0 1025120
12:00−9nnw238640 0.0 1026335
15:00−7wnw248868 0.0 1026385
18:00−9wsw349594 0.0 102544
21:00−9wsw349665 0.0 102579
2 march, tue
tue200:00−7sw5109493 0.0 1022256
03:00−5wsw6139496 0.0 1019399
06:00−3wsw81493100 0.1 1015523
09:00−1wsw81496100 1.5 1011773
12:00+1w713100100 1.6 1008726
15:000wnw61195100 1.9 1008731
18:00−2wnw5138870 0.3 1008426
21:00−3nw5139149 0.3 1010356
3 march, wed
wed300:00−4wnw5129458 0.0 1010348
03:00−4wnw5119364 0.0 1010391
06:00−5nw5119391 0.0 1011392
09:00−3nnw7118695 0.1 1012887
12:00−3nnw71183100 0.1 10131132
15:00−3nnw71183100 0.3 10151194
18:00−4nw6138698 0.1 1016638
21:00−6nw5119149 0.1 1019259